Total_Precipitation_Accumulation
0.01 0.01 0.02 0.02 0.01 0.00 0.00 0.00 0.00 0.00 0.00 0.00 0.02 0.03 0.02 0.02 0.06 0.13 0.23 0.29 0.38 0.35 0.27 0.16 0.09 0.07 0.08 0.06 0.06 0.07 0.08 0.07 0.06 0.06 0.08 0.08 0.08 0.04 0.01 0.02 0.04 0.06 0.06
0.01 0.01 0.03 0.02 0.01 0.01 0.00 0.00 0.00 0.00 0.00 0.00 0.01 0.01 0.01 0.02 0.02 0.06 0.17 0.37 0.49 0.41 0.40 0.35 0.24 0.17 0.13 0.08 0.08 0.08 0.09 0.07 0.05 0.05 0.05 0.06 0.05 0.03 0.01 0.02 0.04 0.06 0.06
0.00 0.00 0.02 0.03 0.02 0.01 0.00 0.00 0.00 0.00 0.00 0.00 0.00 0.00 0.00 0.01 0.01 0.01 0.02 0.08 0.17 0.24 0.27 0.26 0.26 0.23 0.16 0.12 0.11 0.05 0.04 0.05 0.05 0.05 0.05 0.05 0.03 0.02 0.01 0.01 0.03 0.04 0.04
0.01 0.01 0.01 0.03 0.03 0.01 0.00 0.01 0.01 0.01 0.00 0.00 0.00 0.00 0.00 0.00 0.00 0.00 0.00 0.00 0.01 0.04 0.10 0.09 0.10 0.13 0.19 0.22 0.20 0.10 0.03 0.02 0.02 0.03 0.04 0.04 0.02 0.01 0.01 0.03 0.02 0.03 0.02
0.05 0.02 0.01 0.02 0.02 0.03 0.03 0.04 0.03 0.02 0.01 0.01 0.00 0.00 0.00 0.00 0.00 0.00 0.00 0.00 0.00 0.00 0.01 0.01 0.02 0.02 0.03 0.07 0.14 0.14 0.06 0.02 0.02 0.01 0.01 0.03 0.03 0.02 0.03 0.04 0.01 0.00 0.00
0.22 0.11 0.04 0.03 0.03 0.07 0.12 0.10 0.11 0.10 0.05 0.02 0.00 0.00 0.00 0.00 0.00 0.00 0.00 0.00 0.00 0.00 0.00 0.00 0.00 0.00 0.00 0.00 0.01 0.02 0.03 0.02 0.01 0.01 0.01 0.01 0.01 0.01 0.03 0.04 0.01 0.00 0.00
0.31 0.26 0.13 0.09 0.07 0.07 0.13 0.19 0.25 0.32 0.19 0.04 0.03 0.04 0.01 0.00 0.00 0.00 0.00 0.00 0.00 0.00 0.00 0.00 0.00 0.00 0.00 0.00 0.00 0.00 0.01 0.03 0.03 0.02 0.01 0.01 0.01 0.00 0.01 0.04 0.02 0.01 0.00
0.35 0.35 0.29 0.23 0.17 0.15 0.19 0.21 0.28 0.42 0.31 0.11 0.11 0.21 0.12 0.03 0.00 0.00 0.00 0.00 0.00 0.00 0.00 0.00 0.00 0.00 0.00 0.00 0.00 0.00 0.01 0.03 0.05 0.04 0.02 0.01 0.01 0.00 0.00 0.02 0.03 0.02 0.01
0.53 0.54 0.49 0.41 0.32 0.20 0.21 0.24 0.32 0.49 0.38 0.21 0.16 0.21 0.21 0.16 0.04 0.00 0.00 0.00 0.00 0.00 0.00 0.00 0.00 0.00 0.00 0.00 0.00 0.00 0.00 0.00 0.02 0.04 0.04 0.02 0.01 0.01 0.01 0.01 0.03 0.04 0.03
0.46 0.54 0.50 0.47 0.44 0.31 0.31 0.31 0.33 0.45 0.49 0.32 0.21 0.16 0.12 0.10 0.06 0.04 0.01 0.00 0.00 0.00 0.00 0.00 0.00 0.00 0.00 0.00 0.00 0.00 0.00 0.00 0.01 0.03 0.04 0.04 0.03 0.03 0.03 0.02 0.02 0.03 0.05
0.20 0.24 0.30 0.40 0.46 0.46 0.44 0.47 0.45 0.54 0.50 0.41 0.25 0.20 0.20 0.17 0.12 0.07 0.07 0.02 0.00 0.00 0.00 0.00 0.00 0.00 0.00 0.00 0.00 0.00 0.00 0.00 0.00 0.00 0.01 0.02 0.02 0.04 0.06 0.05 0.04 0.04 0.03
0.13 0.12 0.17 0.28 0.45 0.58 0.59 0.57 0.56 0.64 0.59 0.52 0.33 0.21 0.23 0.23 0.21 0.15 0.09 0.07 0.03 0.00 0.00 0.00 0.00 0.00 0.00 0.00 0.00 0.00 0.00 0.00 0.00 0.00 0.00 0.00 0.00 0.01 0.04 0.07 0.07 0.06 0.05
0.08 0.12 0.18 0.29 0.46 0.59 0.65 0.63 0.65 0.64 0.58 0.59 0.43 0.27 0.19 0.18 0.18 0.18 0.17 0.08 0.05 0.02 0.00 0.00 0.00 0.00 0.00 0.00 0.00 0.00 0.00 0.00 0.00 0.00 0.00 0.00 0.00 0.00 0.01 0.02 0.03 0.04 0.05
0.06 0.08 0.15 0.27 0.46 0.66 0.71 0.64 0.59 0.57 0.53 0.57 0.48 0.36 0.35 0.24 0.19 0.18 0.19 0.19 0.17 0.14 0.07 0.01 0.00 0.00 0.00 0.00 0.00 0.00 0.00 0.00 0.00 0.00 0.00 0.00 0.00 0.00 0.00 0.00 0.00 0.01 0.01
0.04 0.05 0.09 0.17 0.29 0.50 0.66 0.67 0.55 0.52 0.47 0.51 0.47 0.41 0.47 0.45 0.33 0.23 0.22 0.22 0.25 0.24 0.21 0.13 0.05 0.01 0.01 0.00 0.00 0.00 0.00 0.00 0.00 0.00 0.00 0.00 0.00 0.00 0.00 0.00 0.00 0.00 0.00
0.03 0.04 0.05 0.09 0.18 0.31 0.49 0.61 0.61 0.56 0.47 0.43 0.49 0.53 0.57 0.60 0.59 0.41 0.29 0.24 0.19 0.23 0.25 0.16 0.09 0.03 0.03 0.02 0.01 0.00 0.00 0.00 0.00 0.00 0.00 0.00 0.00 0.00 0.00 0.00 0.00 0.00 0.00
0.03 0.04 0.06 0.06 0.12 0.20 0.34 0.55 0.66 0.64 0.53 0.48 0.48 0.55 0.63 0.64 0.74 0.65 0.49 0.38 0.30 0.29 0.30 0.19 0.09 0.04 0.03 0.02 0.02 0.01 0.00 0.00 0.00 0.00 0.00 0.00 0.00 0.00 0.00 0.00 0.00 0.00 0.00
0.02 0.04 0.06 0.06 0.10 0.13 0.19 0.32 0.49 0.59 0.58 0.51 0.48 0.52 0.61 0.67 0.78 0.80 0.73 0.59 0.48 0.40 0.37 0.31 0.15 0.08 0.07 0.03 0.02 0.01 0.01 0.00 0.00 0.00 0.00 0.00 0.00 0.00 0.00 0.00 0.00 0.00 0.00
0.02 0.04 0.07 0.10 0.14 0.15 0.13 0.16 0.23 0.32 0.41 0.45 0.44 0.42 0.42 0.50 0.65 0.76 0.76 0.70 0.65 0.50 0.44 0.41 0.27 0.15 0.11 0.06 0.03 0.01 0.01 0.00 0.00 0.00 0.00 0.00 0.00 0.00 0.00 0.00 0.00 0.00 0.00
0.03 0.04 0.07 0.14 0.20 0.19 0.16 0.14 0.15 0.15 0.16 0.19 0.26 0.31 0.32 0.35 0.43 0.49 0.56 0.64 0.74 0.63 0.51 0.46 0.34 0.19 0.14 0.09 0.04 0.01 0.01 0.00 0.00 0.00 0.00 0.00 0.00 0.00 0.00 0.00 0.00 0.00 0.00
0.04 0.05 0.06 0.08 0.12 0.14 0.13 0.16 0.15 0.10 0.09 0.06 0.07 0.10 0.14 0.22 0.30 0.32 0.37 0.49 0.64 0.64 0.53 0.45 0.39 0.25 0.13 0.08 0.04 0.02 0.01 0.01 0.00 0.00 0.00 0.00 0.00 0.00 0.00 0.00 0.00 0.00 0.00
0.08 0.11 0.10 0.08 0.09 0.10 0.10 0.14 0.11 0.08 0.09 0.07 0.05 0.03 0.03 0.07 0.14 0.17 0.21 0.26 0.37 0.45 0.49 0.49 0.43 0.31 0.17 0.09 0.07 0.04 0.01 0.00 0.00 0.00 0.00 0.00 0.00 0.00 0.00 0.00 0.00 0.00 0.00
0.15 0.16 0.16 0.14 0.13 0.17 0.11 0.08 0.09 0.07 0.08 0.08 0.08 0.09 0.07 0.02 0.04 0.06 0.11 0.15 0.14 0.16 0.26 0.39 0.38 0.37 0.38 0.22 0.11 0.07 0.04 0.02 0.01 0.00 0.00 0.00 0.00 0.00 0.00 0.00 0.00 0.01 0.00
0.32 0.30 0.31 0.30 0.27 0.28 0.19 0.09 0.09 0.06 0.06 0.07 0.09 0.10 0.10 0.07 0.05 0.05 0.07 0.09 0.09 0.12 0.20 0.19 0.24 0.40 0.41 0.33 0.20 0.15 0.14 0.10 0.05 0.01 0.00 0.00 0.00 0.00 0.00 0.00 0.00 0.00 0.00
0.38 0.39 0.42 0.41 0.35 0.30 0.23 0.12 0.07 0.05 0.05 0.05 0.06 0.06 0.06 0.06 0.06 0.08 0.12 0.20 0.23 0.24 0.34 0.35 0.33 0.33 0.31 0.28 0.25 0.22 0.16 0.11 0.06 0.02 0.01 0.00 0.00 0.00 0.00 0.00 0.00 0.00 0.00
0.23 0.30 0.32 0.35 0.36 0.33 0.35 0.18 0.12 0.10 0.07 0.09 0.10 0.09 0.10 0.08 0.09 0.11 0.14 0.21 0.19 0.21 0.28 0.30 0.26 0.21 0.17 0.15 0.15 0.14 0.15 0.13 0.09 0.03 0.01 0.01 0.00 0.00 0.00 0.00 0.00 0.00 0.00